Regional Weather Roundup
Issued by NWS Wakefield, VA

Home | Current Version | Previous Version | Text Only | Print | Product List | Glossary Off
Versions: 1 2 3 4 5 6 7 8 9 10 11 12 13 14 15 16 17 18 19 20 21 22 23 24 25 26 27 28 29 30 31 32 33 34 35 36 37 38 39 40 41 42 43 44 45 46 47 48 49 50

000
ASUS41 KAKQ 280210
RWRAKQ

REGIONAL WEATHER ROUNDUP
NATIONAL WEATHER SERVICE WAKEFIELD VA
1000 PM EDT WED AUG 27 2014

Note: "fair" indicates few or no clouds below 12,000 feet with no
significant weather and/or obstructions to visibility. * = Denotes
station may not report precipitation (e.g., rain,snow,etc.),
thunder or fog.

VAZ042-051-052>054-056-280300-
NORTHERN VIRGINIA

CITY           SKY/WX    TMP DP  RH WIND       PRES   REMARKS
WASH NATIONAL  PTCLDY    82  65  56 SW6       29.92F
DULLES         PTCLDY    75  69  81 SW3       29.94S
FORT BELVOIR   CLEAR     72  69  90 CALM      29.93F
QUANTICO       CLEAR     75  71  87 NW7       29.94S
FREDERICKSBRG* CLEAR     73  67  80 CALM      29.93S
STAFFORD*      CLEAR     70  70 100 NW3       29.98S
WARRENTON      CLEAR     70  70 100 CALM      29.95R
CULPEPER*      CLEAR    N/A N/A N/A CALM      29.95S
MANASSAS*      CLEAR     73  73 100 CALM      29.94S
LEESBURG*      CLEAR     77  72  83 W5        29.95S
WINCHESTER     PTCLDY    73  68  83 CALM      29.97R
$$

VAZ048-049-060>072-079>083-280300-
CENTRAL AND SOUTH CENTRAL VIRGINIA...AND NORTH CENTRAL NORTH CAROLINA

CITY           SKY/WX    TMP DP  RH WIND       PRES   REMARKS
RICHMOND       PTCLDY    76  65  68 CALM      29.95S
CHESTERFIELD*  CLEAR    N/A N/A N/A NW6       29.97R
HANOVER        CLEAR     70  65  84 CALM      29.97R
TAPPAHANNOCK*  CLEAR     69  65  87 CALM      29.95R
CHARLOTTSVILLE CLEAR     73  68  84 CALM      29.98R
ORANGE*        CLEAR     72  68  88 CALM      29.98R
LOUISA*        CLEAR     70  66  88 CALM      29.96R
FARMVILLE*     CLEAR     70  66  88 CALM      29.96R
SOUTH HILL*      N/A     66  66 100 CALM      30.02S
ROANOKE RAPIDS CLEAR     68  64  88 SW3       29.96F
RALEIGH        PTCLDY    67  61  81 CALM      30.00R
$$

VAZ088>098-280300-
SOUTHEAST VIRGINIA

CITY           SKY/WX    TMP DP  RH WIND       PRES   REMARKS
NORFOLK        CLEAR     72  68  87 CALM      29.93S
VIRGINIA BEACH CLEAR     70  67  90 W3        29.93R
NORFOLK NAVAL  PTCLDY    73  64  73 CALM      29.95S
WEST POINT*    CLEAR     71  65  83 CALM      29.95S
NEWPORT NEWS   CLEAR     70  63  78 CALM      29.94R
LANGLEY AFB    CLEAR     69  65  88 W2        29.93S
FORT EUSTIS    CLEAR     70  62  75 SE1       29.92S
WILLIAMSBURG*  CLEAR     72  66  83 CALM      29.94F
FRANKLIN*      CLEAR     68  66  94 CALM      29.95S
WAKEFIELD      CLEAR     69  66  90 CALM      29.95S
$$

VAZ020-022-025-037-045-280300-
WESTERN AND SOUTHWEST VIRGINIA

CITY           SKY/WX    TMP DP  RH WIND       PRES   REMARKS
STAUNTON*      CLEAR     72  66  82 CALM      30.03R
HOT SPRINGS VA CLEAR     67  61  79 NW10      30.19S
LYNCHBURG      CLEAR     69  67  93 CALM      30.02R
DANVILLE       CLEAR     70  66  87 SW3       30.00R
MARTINSVILLE   CLEAR     68  67  98 CALM      30.05R
ROANOKE        CLEAR     74  62  66 N5        30.05R
BLACKSBURG     CLEAR     70  66  88 CALM      30.12R
DUBLIN*        CLEAR     71  64  80 W5        30.12R
MARION*        CLEAR    N/A N/A N/A SW6       30.17R
HILLSVILLE*    CLEAR     69  60  74 W5        30.14R
RICHLANDS*     CLEAR     74  61  63 CALM      30.16R
WISE*          CLEAR     70  59  68 CALM      30.16F
ABINGDON*      CLEAR     69  64  82 CALM      30.12S
$$

MDZ021>025-VAZ099-100-280300-
SOUTHERN MARYLAND AND THE DELMARVA PENINSULA

CITY           SKY/WX    TMP DP  RH WIND       PRES   REMARKS
PATUXENT RIVER CLEAR     74  66  76 SW6       29.92S
BAY BRIDGE APT   N/A     77  68  73 S3        29.91F
LEONARDTOWN    CLEAR     72  63  73 W3        29.94F
DOVER          CLEAR     73  67  83 S6        29.89F
GEORGETOWN     CLEAR     73  66  78 S8        29.92S
EASTON         NOT AVBL
CAMBRIDGE      CLEAR     72  64  78 CALM      29.92S
SALISBURY      CLEAR     72  64  76 CALM      29.92S
OCEAN CITY     CLEAR    N/A N/A N/A CALM      29.92S
WALLOPS ISLAND CLEAR     70  66  87 SW5       29.92F
ACCOMACK*      NOT AVBL
$$

NCZ012>017-030>032-280300-
EASTERN NORTH CAROLINA

CITY           SKY/WX    TMP DP  RH WIND       PRES   REMARKS
ELIZABETH CITY CLEAR     66  64  93 W3        29.94S
AHOSKIE*       CLEAR     65  62  90 CALM      29.96S
EDENTON*       CLEAR     70  67  90 CALM      29.95R
CURRITUCK*     CLEAR     69  65  88 CALM      29.94S
KILL DEVIL HLS CLEAR     71  68  90 CALM      29.91F
MANTEO         CLEAR     71  67  88 N5        29.92F
CAPE HATTERAS  CLEAR     74  66  76 VRB7      29.92S
GOLDSBORO      CLEAR     70  66  86 SW1       29.97R
WASHINGTON     CLEAR     69  66  90 CALM      29.96S
GREENVILLE     CLEAR     68  68 100 CALM      29.98S
NEW BERN       CLEAR     75  67  76 W3        29.97R
WILMINGTON     CLEAR     75  63  66 N5        29.98R
$$

VAZ048-280300-
ELSEWHERE

CITY           SKY/WX    TMP DP  RH WIND       PRES   REMARKS
HARRISBURG PA  MOCLDY    80  71  74 NW7       29.91R
BALTIMORE      PTCLDY    77  67  71 CALM      29.91S
ANNAPOLIS        N/A    N/A N/A N/A MISG      29.91S
ANDREWS AFB    CLEAR     77  67  69 W6        29.92F
WILMINGTON DE  CLEAR     78  66  66 SW5       29.91S
PHILADELPHIA   PTCLDY    80  66  62 SW10      29.90S
WILDWOOD NJ*   CLEAR     72  64  78 S6        29.92F
ATLANTIC CITY  CLEAR     73  67  81 SW3       29.91S
HENDERSON NC   CLEAR     68  64  89 W3        29.99S
GREENSBORO     CLEAR     75  62  64 CALM      30.02R
ROCKY MOUNT    CLEAR     65  64  97 CALM      29.98R
FAYETTEVILLE   CLEAR     75  63  66 SE3       29.99R
CHARLOTTE      CLEAR     73  57  57 CALM      30.04R
$$

VAZ100-280300-
MARINE

STATION/POSITION TIME  TEMP    WIND        PRES    WAVE   SWELL
                       AIR SEA DIR/SP/G            HT/PER HT/PER
                 (UTC) (F)     (DEG/KT/KT) (MB)    (FT/S) (FT/S)
44066 TX TWR #4  0200   73 74  250/  2/  4 1012.5F   6/15   7/15
CAPE MAY NJ      0200   74 81  200/  4/  6 1012.3F
LEWES DE         0200   73 78  210/  5/  7 1012.5F
15NM E FENWICK I 0200   74 75              1012.9S   3/10
OCEAN-CITY-INLET 0200   74 77  230/  3/  4 1012.8S
WACHAPREAGUE VA  0200   72 81  270/  3/  3 1013.4S
THOMAS POINT MD  0200   79 79  220/  6/  7 1013.8F
GOOSES REEF MD   0200   79     240/  4/  6 1013.7F
COVE POINT MD    0200   78     270/  7/  9 1013.0S
SOLOMONS ISLAND  0200      81                N/A
BISHOPS HEAD MD  0200   79 81  260/  6/  6 1012.8R
PINEY POINT MD   0200          250/  4/  5   N/A
POTOMAC MD       0200   79     240/  8/ 10 1012.5R
CAMBRIDGE MD     0200   78 78  230/  3/  3 1012.7F
LEWISETTA VA     0200   76 81  240/  5/  6 1013.0S
RAPPAHANNOCK LGT 0200          170/  7/  8 1013.9S
STINGRAY PT      0200   77     220/  8/  8   N/A
YORK RVR RNG VA  0200   78     210/  4/  5 1013.1F
YORKTOWN VA      0200   73 80  220/  5/  6 1013.3F
JAMESTOWN VA     0200   76     200/  4/  4   N/A
DOMINION TERM VA 0200   78     200/  1/  2 1013.8F
KIPTOPEKE VA     0200      81  220/  4/  5   N/A
CHES BAY BRIDGE  0200   76 78  150/  3/  4 1013.1F
CAPE HENRY VA    0200   73     200/  4/  4 1012.4F
CHESAPEAKE LGHT  0100   73      CALM  /  2 1014.1F
WILLOUBY STN VA  0200   76      30/  2/  2 1012.5F
S CRANEY ISL VA  0200           CALM  /  1 1013.3F
CAPE HENRY BUOY  0200      76                N/A     4/13   3/13
1ST LANDING BUOY 0200   76     190/  4/  4 1013.4F
CAPE CHARLES BUO 0200      77                N/A     5/13   3/13
OFFSHORE WE BUOY 0200      75                N/A     5/12   3/12
64NM E OF VA BCH 0200   76 78  360/ 10/ 14 1012.1F  10/13  10/13
DUCK PIER NC     0200   74 77  340/  8/  9 1012.5R
44056 DUCK FRF   0200                        N/A     6/13   3/13
OREGON INLET NC  0200   72 79  340/  5/  7 1013.0F
HATTERAS NC      0200   77 80  360/ 14/ 16 1013.5F
DIAMOND SHLS NC  0200   75     340/ 17/ 23 1012.4R  10/13   8/13
CAPE LOOKOUT NC  0100   79      10/  7/  9 1013.7R
$$


USA.gov is the U.S. government's official web portal to all federal, state and local government web resources and services.